Regional Weather Roundup
Issued by NWS Kansas City/Pleasant Hill, MO

Home | Current Version | Previous Version | Text Only | Print | Product List | Glossary On
Versions: 1 2 3 4 5 6 7 8 9 10 11 12 13 14 15 16 17 18 19 20 21 22 23 24 25 26 27 28 29 30 31 32 33 34 35 36 37 38 39 40 41 42 43 44 45 46 47 48 49 50
000
ASUS43 KEAX 061210
RWREAX

WEATHER ROUNDUP FOR EASTERN KANSAS AND NORTHWEST MISSOURI
NATIONAL WEATHER SERVICE KANSAS CITY/PLEASANT HILL MO
700 AM CDT FRI MAY 06 2016

KSZ040-057-103>105-MOZ028-029-037-043-061300-
...KANSAS CITY METROPOLITAN AREA...

CITY           SKY/WX    TMP DP  RH WIND       PRES   REMARKS
K.C. INTL      PTCLDY    50  41  71 S8        30.07R
6HR MIN TEMP:  48; 6HR MAX TEMP:  56;

K.C. DOWNTOWN  CLEAR     52  48  86 CALM      30.07R
6HR MIN TEMP:  50; 6HR MAX TEMP:  55;

LEES SUMMIT    CLEAR     54  36  50 SW6       30.08R
6HR MIN TEMP:  52; 6HR MAX TEMP:  57;

OLATHE - IXD   CLEAR     50  45  83 SE6       30.08R
6HR MIN TEMP:  46; 6HR MAX TEMP:  52;

OLATHE - OJC   CLEAR     50  41  71 S3        30.08R
6HR MIN TEMP:  50; 6HR MAX TEMP:  54;

LAWRENCE       CLEAR     45  44  97 CALM      30.07R

$$

MOZ001>008-011>017-020>025-030>033-038>040-044>046-053-054-061300-
...NORTHERN AND CENTRAL MISSOURI...

CITY           SKY/WX    TMP DP  RH WIND       PRES   REMARKS
ST. JOSEPH     CLEAR     50  47  89 S3        30.06R
6HR MIN TEMP:  47; 6HR MAX TEMP:  54;

MOSBY          SUNNY     45  45 100 CALM      30.08R
WARRENSBURG    CLEAR     45  41  87 CALM      30.08R
WHITEMAN AFB   CLEAR     47  43  85 S2        30.07S
6HR MIN TEMP:  46; 6HR MAX TEMP:  50;

CLINTON        CLEAR     45  45 100 CALM      30.10R
SEDALIA        CLEAR     51  41  68 SW9       30.09R
6HR MIN TEMP:  48; 6HR MAX TEMP:  55;

WARSAW         NOT AVBL
CHILLICOTHE      N/A     46  43  89 CALM      30.07R
6HR MIN TEMP:  44; 6HR MAX TEMP:  49;

KIRKSVILLE     CLEAR     53  36  52 SW9       30.06R
6HR MIN TEMP:  43; 6HR MAX TEMP:  53;


$$

MOZ041-047>049-056>058-063>065-088>090-097-061300-
...EASTERN AND SOUTHERN MISSOURI...

CITY           SKY/WX    TMP DP  RH WIND       PRES   REMARKS
ST. LOUIS INTL SUNNY     51  43  74 W5        30.07R
6HR MIN TEMP:  48; 6HR MAX TEMP:  53;

SPIRIT OF STL  SUNNY     45  43  93 CALM      30.07R
COLUMBIA       CLEAR     48  40  73 SW7       30.08R
JEFFERSON CITY CLEAR     42  41  96 CALM      30.09R
ROLLA          PTCLDY    45  40  82 SW9       30.08R
OSAGE BEACH    CLEAR     41  30  65 CALM      30.10R
SPRINGFIELD    CLEAR     44  38  79 S3        30.10R
BRANSON        CLEAR     43  36  75 CALM      30.11R
JOPLIN         CLEAR     47  40  76 CALM      30.10R
WEST PLAINS    CLEAR     49  39  68 W7        30.12R

$$

IAZ060-094-KSZ022-034>040-054-083-096-NEZ052-066-093-061300-
...KANSAS...SOUTHEAST NEBRASKA AND IOWA...

CITY           SKY/WX    TMP DP  RH WIND       PRES   REMARKS
TOPEKA         CLEAR     50  47  89 CALM      30.06R
6HR MIN TEMP:  48; 6HR MAX TEMP:  53;

MANHATTAN      CLEAR     45  41  86 CALM      30.05R
EMPORIA        CLEAR     49  45  86 S7        30.07R
CHANUTE        CLEAR     47  44  90 S3        30.09R
WICHITA        MOCLDY    48  44  86 SW3       30.07R
FALLS CITY     CLEAR     51  43  74 CALM      30.03R
LAMONI         CLEAR     52  42  69 SW9       30.04R

$$




USA.gov is the U.S. government's official web portal to all federal, state and local government web resources and services.